Hourly Weather Roundup
Issued by NWS Central Illinois

Home | Current Version | Previous Version | Text Only | Print | Product List | Glossary On
Versions: 1 2 3 4 5 6 7 8 9 10 11 12 13 14 15 16 17 18 19 20 21 22 23 24 25 26 27 28 29 30 31 32 33 34 35 36 37 38 39 40 41 42 43 44 45 46 47 48 49 50
000
NZUS43 KILX 290910
HWRILX

AREA WEATHER ROUNDUP
NATIONAL WEATHER SERVICE, LINCOLN IL
400 AM CDT SUN MAR 29 2015


CITY           SKY/WX    TMP DP  RH WIND       PRES   REMARKS
BLOOMINGTON    CLEAR     29  21  71 S13       30.19F WCI  19
CHAMPAIGN      CLEAR     28  19  69 S12       30.22F WCI  18
DECATUR        PTCLDY    31  20  63 S12       30.21F WCI  22
EFFINGHAM      CLEAR     30  18  59 SE7       30.26F WCI  23
FLORA          CLEAR     27  22  79 SE7       30.27F WCI  20
GALESBURG      PTCLDY    30  21  69 SE8       30.12F WCI  23
JACKSONVILLE   PTCLDY    35  21  58 S13       30.16F WCI  26
LACON          CLEAR     30  18  61 S9        30.16F WCI  22
LAWRENCEVILLE  CLEAR     25  21  85 SE6       30.30F WCI  18
LITCHFIELD     CLEAR     31  20  62 SE13      30.20F WCI  21
$$


CITY           SKY/WX    TMP DP  RH WIND       PRES   REMARKS
LINCOLN        MOCLDY    32  23  68 S9        30.21F WCI  24
MACOMB         MOCLDY    32  22  65 S14       30.15F WCI  22
MATTOON        CLEAR     29  18  63 S10       30.23F WCI  20
MT CARMEL AP   CLEAR     32  27  80 SE7       30.29F WCI  26
OLNEY-NOBLE AP CLEAR     28  21  74 SE6       30.28F WCI  22
PARIS          CLEAR     28  21  75 SE7       30.26F WCI  21
PEORIA         PTCLDY    33  19  56 S15       30.17F WCI  23
PONTIAC        CLEAR     29  21  71 S12       30.20F WCI  20
RANTOUL        CLEAR     28  20  73 SE9       30.21F WCI  19
ROBINSON       CLEAR     23  19  83 S5        30.30F WCI  17
SPRINGFIELD    MOCLDY    33  20  58 S16G26    30.19F WCI  23
TAYLORVILLE    PTCLDY    32  21  64 S13G18    30.20F WCI  22
$$

...REGIONAL REPORTS...


CITY           SKY/WX    TMP DP  RH WIND       PRES   REMARKS
CHICAGO O`HARE MOCLDY    27  15  61 S10       30.17F WCI  17
KANKAKEE       CLEAR     29  17  61 SE10G16   30.21F WCI  20
MOLINE         FAIR      31  18  58 SE7       30.10F WCI  24
MOUNT VERNON   CLEAR     30  18  59 SE5       30.27F WCI  25
PITTSFIELD     CLEAR     33  24  69 SE8       30.16S WCI  25
QUINCY         CLEAR     34  21  59 S12       30.11F WCI  25
ROCKFORD       CLEAR     28  17  63 S14       30.14F WCI  17
$$


CITY           SKY/WX    TMP DP  RH WIND       PRES   REMARKS
BURLINGTON     PTCLDY    33  21  61 S14G23    30.09F WCI  23
CEDAR RAPIDS   CLEAR     30  20  66 S14       30.00F WCI  19
DES MOINES     MOCLDY    38  27  64 S15       29.95F WCI  29
KIRKSVILLE     CLEAR     32  28  85 S13       30.03F WCI  22
OTTUMWA        CLEAR     34  22  61 S15       30.00F WCI  24
ST LOUIS       CLEAR     36  20  52 SE12      30.18F WCI  28
$$


CITY           SKY/WX    TMP DP  RH WIND       PRES   REMARKS
TERRE HAUTE    CLEAR     27  18  69 SE8       30.28F WCI  19
EVANSVILLE     CLEAR     28  21  75 CALM      30.31F
INDIANAPOLIS   CLEAR     25  15  66 S9        30.28F WCI  15
LAFAYETTE      CLEAR     26  16  65 S6        30.26F WCI  19
MADISON        PTCLDY    32  16  51 S13G22    30.07F WCI  22
MILWAUKEE      MOCLDY    28  13  53 S10       30.13F WCI  19
$$





USA.gov is the U.S. government's official web portal to all federal, state and local government web resources and services.